Hourly Data Report for July 15, 2021

IQALUIT CLIMATE
NUNAVUT
Current Station Operator: ECCC - MSC

63°44'50.000" N
68°32'40.000" W
33.50 m
2402592
71321
XFB

Download Data

Hourly Data (July 2021)
Hourly Data Report for July 15, 2021
TIME
LST
Temp Definition
°C
Dew Point Definition
°C
Rel Hum Definition
%
Precip. Amount Definition
mm

Wind Dir Definition
10's deg

Wind Spd Definition
km/h
Visibility Definition
km
Stn Press Definition
kPa
Hmdx Definition


Wind Chill Definition


Weather Definition


00:00 8.3 5.1 80 0.0 36 7   100.72     LegendNANA
01:00 7.4 4.5 82 0.0 36 9   100.70     LegendNANA
02:00 5.9 4.0 87 0.0 26 3   100.73     LegendNANA
03:00 5.6 4.2 90 0.0 1 1   100.72     LegendNANA
04:00 6.0 4.4 90 0.0 10 2   100.70     LegendNANA
05:00 8.6 5.6 81 0.0 3 2   100.71     LegendNANA
06:00 9.2 6.4 83 0.0 13 2   100.69     LegendNANA
07:00 10.6 6.5 76 0.0 25 6   100.68     LegendNANA
08:00 11.7 6.0 68 0.0 24 5   100.66     LegendNANA
09:00 12.0 6.5 69 0.0 24 8   100.67     LegendNANA
10:00 12.2 6.9 70 0.0 19 6   100.60     LegendNANA
11:00 10.7 6.8 77 0.0 14 6   100.57     LegendNANA
12:00 10.9 6.8 76 0.0 13 9   100.53     LegendNANA
13:00 13.0 7.0 67 0.0 13 6   100.52     LegendNANA
14:00 13.4 6.6 64 0.0 13 6   100.51     LegendNANA
15:00 13.8 6.7 62 0.0 13 7   100.45     LegendNANA
16:00 13.7 7.4 66 0.0 14 7   100.42     LegendNANA
17:00 13.0 6.7 65 0.0 14 5   100.41     LegendNANA
18:00 12.7 5.8 63 0.0 13 3   100.42     LegendNANA
19:00 12.5 5.2 61 0.0 14 5   100.40     LegendNANA
20:00 11.3 5.2 66 0.0 14 6   100.40     LegendNANA
21:00 9.5 5.5 76 0.0 15 4   100.40     LegendNANA
22:00 9.5 5.7 77 0.0 20 3   100.40     LegendNANA
23:00 8.2 4.8 79 0.0 6 3   100.39     LegendNANA

Notes on Data Quality.

Legend

  • E = Estimated
  • M = Missing
  • NA = Not Available*
  • [empty] = Indicates an unobserved value
Date modified: